Location: *
(45.9500°N, 9.0833°E)
Time: 20:05:42
(UTC+00:00)

Tiros 1 - Pass Details

Date: 23 June 2021
Orbit: 630 x 664 km, 48.4° (Epoch: 05 August)

Event Time Altitude Azimuth Distance (km) Brightness Sun altitude
Rises 10:48:27 0° 272° (W) 2,924 10.4 66.2°
Reaches altitude 10° 10:50:47 10° 275° (W) 2,021 9.7 66.4°
Maximum altitude 10:55:24 64° 358° (N) 710 8.1 66.6°
Drops below altitude 10° 11:00:05 10° 80° (E) 2,042 9.9 66.9°
Sets 11:02:27 0° 84° (E) 2,958 10.6 67.0°
